COSMOS 1275 DEB, 12749

Orbit data source: Space-Track

COSMOS 1275 DEB, 12749 is space debris in LEO originally from a launch on Thu, 04 Jun 1981 UTC launched from the Plesetsk Missile And Space Complex (PKMTR). Debris objects in space refer to the collection of defunct objects orbiting the Earth. Examples of debris include non-operational satellites, rocket bodies, and fragments generated from explosions, collisions, or faulty payload assembly.

Loading next visibility...
Identifier
12749, 1981-053CS
Orbit
LEO
Country
Flag of CISCIS
Related business
Manufacturer
Unknown
Mission
Spacecraft
Bus & Motor
Unknown
Mass
Unknown
Launch date (UTC)
1981-06-04 (45 years ago)
Launch vehicle
Unknown
Launch site
Plesetsk Missile And Space Complex (PKMTR)
Object type
Payload
Rocket body
Debris
Shape & HBR
Unknown shape, 0.2 m
Radar Cross Section
Small (<0.1 m²)

Expand to show TLE details & history
Last TLE update: 10 hours ago

TLE from 10 hours ago
0 COSMOS 1275 DEB
1 12749U 81053CS  25351.60591240  .00000399  00000-0  39006-3 0  9995
2 12749  82.8102 212.5552 0062926 327.2845  93.0016 13.76190069221055
Epoch: 2025-12-17T14:32Z
TLE epoch observation values (Epoch: 2025-12-17T14:32:30.831Z)
Latitude
60.2961°
Longitude
-79.3388°
Altitude
990.41 km
Speed
7.361 km/s
True Right ascension
15h 01m 03s
True Declination
60° 09' 09"
Sunlit
Object was in daylight at epoch
Visualization orbit readout
Latitude
Unknown
Longitude
Unknown
Altitude
Unknown
Speed
Unknown
Apparent Right ascension
Unknown
Apparent Declination
Unknown
Sunlit
N/A
Visualization observer readout
Local Sidereal Time
23:05:45
Azimuth
Unknown
Elevation
Unknown
Doppler factor
Unknown
Orbital elements
Apogee altitude
1,020.851 km
Perigee altitude
928.316 km
Semi-major axis
7,352.72 km
Eccentricity
0.00629
Inclination
82.8102°
RAAN
212.5552°
Arg. of periapsis
327.2845°
True anomaly
93.72137°
Mean anomaly
93.0016°
Eccentric anomaly
93.36152°
Mean motion
3.44248 °/min
Orbital period
104.58 mins
BSTAR
0.00039006
Loading maneuver chart data...
Computing Atmospheric mass density...
Loading historical data...
Loading historical data...
Loading historical data...
Loading historical data...
Loading historical data...
Loading historical data...
Loading historical data...

Documentation

Showing up to 5 results
|